TimeMST,TemperatureF,Dew PointF,Humidity,Sea Level PressureIn,VisibilityMPH,Wind Direction,Wind SpeedMPH,Gust SpeedMPH,PrecipitationIn,Events,Conditions,WindDirDegrees,DateUTC
12:51 AM,63.0,46.9,56,29.93,10.0,Calm,Calm,-,N/A,,Partly Cloudy,0,2013-11-19 07:51:00
1:51 AM,63.0,46.9,56,29.93,10.0,Calm,Calm,-,N/A,,Partly Cloudy,0,2013-11-19 08:51:00
2:51 AM,60.1,46.0,60,29.93,10.0,Calm,Calm,-,N/A,,Partly Cloudy,0,2013-11-19 09:51:00
3:51 AM,60.1,46.0,60,29.91,10.0,East,6.9,-,N/A,,Partly Cloudy,90,2013-11-19 10:51:00
4:51 AM,59.0,45.0,60,29.91,10.0,East,4.6,-,N/A,,Partly Cloudy,100,2013-11-19 11:51:00
5:51 AM,57.9,44.1,60,29.92,10.0,East,6.9,-,N/A,,Partly Cloudy,90,2013-11-19 12:51:00
6:51 AM,57.0,44.1,62,29.92,10.0,ESE,4.6,-,N/A,,Mostly Cloudy,120,2013-11-19 13:51:00
7:51 AM,59.0,44.1,58,29.93,10.0,ESE,5.8,-,N/A,,Mostly Cloudy,110,2013-11-19 14:51:00
8:51 AM,62.1,44.1,52,29.94,10.0,ESE,5.8,-,N/A,,Mostly Cloudy,110,2013-11-19 15:51:00
9:51 AM,64.9,44.1,47,29.94,10.0,Variable,3.5,-,N/A,,Mostly Cloudy,0,2013-11-19 16:51:00
10:51 AM,68.0,45.0,43,29.92,10.0,Variable,4.6,-,N/A,,Scattered Clouds,0,2013-11-19 17:51:00
11:51 AM,71.1,44.1,38,29.91,10.0,West,4.6,-,N/A,,Scattered Clouds,270,2013-11-19 18:51:00
12:51 PM,73.0,44.1,35,29.87,10.0,WNW,6.9,-,N/A,,Mostly Cloudy,290,2013-11-19 19:51:00
1:51 PM,75.0,45.0,34,29.83,10.0,WNW,4.6,-,N/A,,Scattered Clouds,300,2013-11-19 20:51:00
2:51 PM,78.1,45.0,31,29.81,10.0,Variable,5.8,-,N/A,,Scattered Clouds,0,2013-11-19 21:51:00
3:51 PM,77.0,45.0,32,29.79,10.0,SSW,3.5,-,N/A,,Scattered Clouds,210,2013-11-19 22:51:00
4:51 PM,75.0,44.1,33,29.80,10.0,WNW,10.4,-,N/A,,Mostly Cloudy,290,2013-11-19 23:51:00
5:51 PM,73.9,45.0,35,29.80,10.0,West,10.4,-,N/A,,Mostly Cloudy,270,2013-11-20 00:51:00
6:51 PM,73.0,45.0,37,29.81,10.0,WNW,9.2,-,N/A,,Mostly Cloudy,300,2013-11-20 01:51:00
7:51 PM,71.1,45.0,39,29.81,10.0,SSW,4.6,-,N/A,,Mostly Cloudy,210,2013-11-20 02:51:00
8:51 PM,70.0,45.0,41,29.81,10.0,WSW,5.8,-,N/A,,Scattered Clouds,240,2013-11-20 03:51:00
9:51 PM,70.0,45.0,41,29.83,10.0,West,8.1,-,N/A,,Scattered Clouds,280,2013-11-20 04:51:00
10:51 PM,68.0,44.1,42,29.83,10.0,West,5.8,-,N/A,,Scattered Clouds,280,2013-11-20 05:51:00
11:51 PM,66.0,45.0,47,29.82,10.0,Calm,Calm,-,N/A,,Mostly Cloudy,0,2013-11-20 06:51:00